QPF
0.00 0.00 0.00 0.00 0.00 0.00 0.00 0.00 0.00 0.00 0.00 0.00 0.00 0.00 0.01 0.01 0.01 0.01 0.02 0.04 0.08 0.06 0.03 0.03 0.04 0.03 0.02 0.02 0.02 0.00 0.00 0.00
0.00 0.00 0.00 0.00 0.00 0.00 0.00 0.00 0.00 0.00 0.00 0.00 0.00 0.00 0.00 0.00 0.01 0.02 0.01 0.03 0.05 0.08 0.09 0.04 0.03 0.03 0.05 0.06 0.05 0.04 0.02 0.00
0.00 0.00 0.00 0.00 0.00 0.00 0.00 0.00 0.00 0.00 0.00 0.00 0.00 0.00 0.00 0.00 0.00 0.00 0.01 0.01 0.02 0.05 0.08 0.10 0.07 0.05 0.05 0.05 0.06 0.06 0.05 0.02
0.00 0.00 0.00 0.00 0.00 0.00 0.00 0.00 0.00 0.00 0.00 0.00 0.00 0.00 0.00 0.00 0.00 0.00 0.00 0.00 0.01 0.02 0.04 0.10 0.14 0.15 0.12 0.08 0.08 0.09 0.08 0.05
0.00 0.00 0.00 0.00 0.00 0.00 0.00 0.00 0.00 0.00 0.00 0.00 0.00 0.00 0.00 0.00 0.00 0.00 0.00 0.00 0.00 0.00 0.00 0.02 0.05 0.09 0.11 0.13 0.08 0.06 0.10 0.14
0.00 0.00 0.00 0.00 0.00 0.00 0.00 0.00 0.00 0.00 0.00 0.00 0.00 0.00 0.00 0.00 0.00 0.00 0.00 0.00 0.00 0.00 0.00 0.00 0.00 0.02 0.05 0.09 0.13 0.16 0.18 0.21
0.00 0.00 0.00 0.00 0.00 0.00 0.00 0.00 0.00 0.00 0.00 0.00 0.00 0.00 0.00 0.00 0.00 0.00 0.00 0.00 0.00 0.00 0.00 0.00 0.00 0.00 0.01 0.04 0.06 0.14 0.22 0.28
0.00 0.00 0.00 0.00 0.00 0.00 0.00 0.00 0.00 0.00 0.00 0.00 0.00 0.00 0.00 0.00 0.00 0.00 0.00 0.00 0.00 0.00 0.00 0.00 0.00 0.00 0.00 0.01 0.02 0.03 0.05 0.17
0.00 0.00 0.00 0.00 0.00 0.00 0.00 0.00 0.00 0.00 0.00 0.00 0.00 0.00 0.00 0.00 0.00 0.00 0.00 0.00 0.00 0.00 0.00 0.00 0.00 0.00 0.00 0.00 0.01 0.02 0.02 0.03
0.00 0.00 0.00 0.00 0.00 0.00 0.00 0.00 0.00 0.00 0.00 0.00 0.00 0.00 0.00 0.00 0.00 0.00 0.00 0.00 0.00 0.00 0.00 0.00 0.00 0.00 0.00 0.00 0.00 0.01 0.02 0.04
0.00 0.00 0.00 0.00 0.00 0.00 0.00 0.00 0.00 0.00 0.00 0.00 0.00 0.00 0.00 0.00 0.00 0.00 0.00 0.00 0.00 0.00 0.00 0.00 0.00 0.00 0.00 0.00 0.00 0.01 0.02 0.04
0.00 0.00 0.00 0.00 0.00 0.00 0.00 0.00 0.00 0.00 0.00 0.00 0.00 0.00 0.00 0.00 0.00 0.00 0.00 0.00 0.00 0.00 0.00 0.00 0.00 0.00 0.00 0.00 0.00 0.01 0.02 0.03
0.00 0.00 0.00 0.00 0.00 0.00 0.00 0.00 0.00 0.00 0.00 0.00 0.00 0.00 0.00 0.00 0.00 0.00 0.00 0.00 0.00 0.00 0.00 0.00 0.00 0.00 0.00 0.00 0.00 0.00 0.00 0.02
0.00 0.00 0.00 0.00 0.00 0.00 0.00 0.00 0.00 0.00 0.00 0.00 0.00 0.00 0.00 0.00 0.00 0.00 0.00 0.00 0.00 0.00 0.00 0.00 0.00 0.00 0.00 0.00 0.00 0.00 0.00 0.01
0.00 0.00 0.00 0.00 0.00 0.00 0.00 0.00 0.00 0.00 0.00 0.00 0.00 0.00 0.00 0.00 0.00 0.00 0.00 0.00 0.00 0.00 0.00 0.00 0.00 0.00 0.00 0.00 0.01 0.06 0.12 0.12
0.00 0.00 0.00 0.00 0.00 0.00 0.00 0.00 0.00 0.00 0.00 0.00 0.00 0.00 0.00 0.00 0.00 0.00 0.00 0.00 0.00 0.00 0.00 0.00 0.00 0.02 0.02 0.03 0.07 0.10 0.12 0.17
0.00 0.00 0.00 0.00 0.00 0.00 0.00 0.00 0.00 0.00 0.00 0.00 0.00 0.00 0.00 0.00 0.00 0.00 0.00 0.00 0.00 0.00 0.01 0.03 0.03 0.02 0.06 0.07 0.11 0.14 0.16 0.14
0.00 0.00 0.00 0.00 0.00 0.00 0.00 0.00 0.00 0.00 0.00 0.00 0.00 0.00 0.00 0.00 0.00 0.00 0.00 0.00 0.00 0.01 0.02 0.03 0.02 0.02 0.06 0.04 0.07 0.08 0.07 0.10
0.00 0.00 0.00 0.00 0.00 0.00 0.00 0.00 0.00 0.00 0.00 0.00 0.00 0.00 0.00 0.00 0.00 0.00 0.00 0.00 0.00 0.02 0.02 0.02 0.01 0.02 0.05 0.05 0.08 0.07 0.07 0.14
MSLP
1009.46 1009.37 1009.19 1008.85 1008.96 1009.09 1009.48 1009.99 1010.28 1010.85 1011.45 1011.91 1012.19 1012.37 1012.49 1012.51 1012.59 1012.75 1012.92 1013.07 1013.26 1013.27 1013.30 1013.53 1013.89 1014.31 1014.54 1014.70 1014.68 1015.06 1014.91 1015.39
1009.77 1009.77 1009.72 1009.78 1009.94 1010.37 1010.34 1010.57 1010.95 1011.19 1011.72 1012.29 1012.64 1012.86 1012.89 1012.81 1012.80 1012.67 1012.67 1012.70 1012.87 1013.06 1013.15 1013.15 1013.21 1013.45 1013.52 1013.62 1014.15 1014.73 1015.12 1015.46
1010.46 1010.43 1010.35 1010.67 1010.85 1011.06 1011.25 1011.35 1011.43 1011.71 1011.91 1012.35 1012.66 1012.88 1013.07 1013.04 1012.91 1012.74 1012.71 1012.86 1012.92 1012.90 1012.90 1012.69 1012.65 1012.82 1012.80 1012.81 1013.23 1013.62 1013.90 1014.85
1011.11 1011.21 1011.10 1011.18 1011.52 1011.74 1011.90 1012.17 1012.02 1012.05 1012.25 1012.48 1012.89 1013.14 1013.28 1013.27 1013.10 1012.90 1012.79 1012.77 1012.71 1012.67 1012.77 1012.69 1012.85 1012.60 1011.95 1011.85 1012.28 1012.36 1012.44 1012.99
1011.25 1011.72 1012.07 1011.89 1012.04 1012.16 1012.24 1012.38 1012.54 1012.53 1012.61 1012.88 1013.30 1013.54 1013.79 1013.40 1013.20 1012.80 1012.62 1012.49 1012.43 1012.36 1012.14 1012.14 1012.12 1012.22 1012.17 1012.22 1011.98 1011.37 1011.41 1011.34
1011.20 1011.63 1012.02 1012.26 1012.13 1012.19 1012.29 1012.44 1012.88 1012.95 1013.08 1013.25 1013.59 1013.71 1013.79 1013.63 1013.53 1013.27 1012.99 1012.67 1012.51 1012.25 1012.04 1011.88 1011.74 1011.68 1011.66 1011.60 1011.42 1011.58 1011.08 1011.09
1011.39 1011.69 1011.92 1012.28 1012.36 1012.43 1012.54 1012.61 1012.97 1013.03 1013.20 1013.47 1013.68 1013.78 1013.75 1013.73 1013.54 1013.28 1013.09 1012.83 1012.41 1011.85 1011.46 1011.22 1011.02 1010.94 1010.86 1010.94 1010.90 1010.77 1010.77 1010.70
1011.58 1011.97 1012.23 1012.44 1012.59 1012.50 1012.53 1012.70 1013.05 1013.10 1013.15 1013.24 1013.28 1013.19 1013.16 1013.19 1013.33 1013.20 1012.76 1012.16 1011.71 1011.14 1010.80 1010.50 1010.26 1010.01 1009.88 1009.96 1009.87 1009.71 1009.66 1009.49
1011.57 1011.99 1012.17 1012.45 1012.71 1012.78 1012.83 1013.06 1013.32 1013.40 1013.30 1013.18 1013.25 1013.35 1013.51 1013.49 1013.13 1012.82 1012.31 1011.73 1011.08 1010.43 1010.00 1009.48 1009.02 1008.99 1009.11 1009.18 1009.07 1008.84 1008.56 1008.06
1011.63 1012.12 1012.32 1012.56 1012.85 1013.06 1013.19 1013.33 1013.37 1013.31 1013.39 1013.48 1013.62 1013.53 1013.34 1013.10 1012.71 1012.30 1011.70 1011.00 1010.31 1009.73 1009.26 1008.93 1008.50 1008.09 1007.92 1008.08 1008.13 1007.71 1007.32 1007.03
1011.76 1012.11 1012.37 1012.73 1012.90 1013.08 1013.06 1013.13 1013.40 1013.46 1013.46 1013.43 1013.31 1013.06 1012.89 1012.66 1012.29 1011.82 1011.09 1010.24 1009.61 1008.90 1008.41 1008.22 1007.92 1007.52 1007.17 1007.06 1006.77 1006.32 1006.05 1005.68
1011.71 1012.04 1012.25 1012.66 1012.78 1012.91 1013.19 1013.48 1013.57 1013.46 1013.38 1013.13 1013.09 1012.85 1012.56 1012.10 1011.54 1010.80 1010.20 1009.45 1008.88 1008.31 1007.79 1007.42 1007.06 1006.56 1006.09 1005.75 1005.34 1004.89 1004.52 1004.04
1011.55 1011.86 1012.14 1012.54 1012.89 1013.03 1013.32 1013.40 1013.36 1013.28 1013.09 1012.88 1012.69 1012.33 1011.90 1011.43 1010.77 1010.15 1009.50 1008.82 1008.11 1007.54 1007.01 1006.53 1005.83 1005.41 1005.07 1004.59 1004.05 1003.68 1003.24 1002.91
1011.45 1011.92 1012.24 1012.64 1013.11 1013.40 1013.34 1013.18 1013.05 1012.86 1012.64 1012.44 1012.03 1011.75 1011.37 1010.76 1010.02 1009.20 1008.37 1007.79 1007.13 1006.68 1006.34 1005.86 1005.09 1004.46 1004.02 1003.70 1003.20 1002.63 1002.12 1001.47
1011.25 1011.86 1012.37 1012.72 1012.92 1012.94 1012.95 1012.80 1012.55 1012.38 1012.07 1011.72 1011.36 1011.05 1010.67 1009.97 1009.31 1008.57 1007.89 1007.28 1006.62 1006.14 1005.55 1004.95 1004.23 1003.71 1003.24 1002.64 1001.96 1001.16 1000.13 999.20
1011.20 1011.65 1011.84 1011.89 1012.03 1012.20 1012.05 1012.12 1012.16 1011.90 1011.49 1011.28 1010.96 1010.66 1010.35 1009.68 1008.96 1008.18 1007.58 1007.09 1006.36 1005.72 1004.82 1004.29 1003.79 1003.19 1002.58 1001.68 1000.77 999.67 998.42 997.25
1010.66 1010.83 1011.12 1011.23 1011.36 1011.52 1011.90 1012.03 1011.84 1011.65 1011.41 1011.13 1010.84 1010.43 1009.98 1009.45 1008.85 1008.15 1007.39 1006.50 1005.81 1005.28 1004.71 1003.94 1003.18 1002.68 1001.84 1000.67 999.55 998.25 997.03 995.93
1010.01 1010.30 1010.55 1010.69 1011.25 1011.64 1011.79 1011.73 1011.61 1011.46 1011.19 1010.75 1010.55 1010.30 1009.89 1009.29 1008.66 1007.86 1007.00 1006.01 1005.24 1005.03 1004.47 1003.61 1002.87 1002.16 1001.23 999.94 998.76 997.83 996.89 995.89
1009.74 1010.13 1010.42 1010.87 1011.18 1011.43 1011.67 1011.55 1011.34 1011.20 1011.00 1010.68 1010.47 1009.99 1009.64 1008.98 1008.20 1007.27 1006.24 1005.70 1005.08 1004.71 1004.13 1003.50 1002.71 1001.92 1001.32 1000.29 999.20 998.46 997.55 996.55
Thickness
5717 5719 5722 5726 5725 5724 5721 5718 5717 5711 5706 5701 5698 5696 5693 5690 5688 5685 5682 5679 5673 5671 5670 5667 5661 5656 5652 5648 5644 5640 5642 5636
5709 5709 5710 5711 5709 5706 5708 5706 5703 5701 5696 5690 5687 5683 5682 5680 5678 5677 5674 5671 5666 5661 5659 5658 5654 5650 5648 5644 5637 5630 5625 5621
5695 5696 5697 5696 5695 5694 5694 5693 5692 5688 5686 5682 5680 5675 5670 5668 5667 5665 5662 5658 5654 5651 5649 5647 5644 5641 5639 5635 5629 5624 5619 5609
5681 5682 5684 5684 5683 5682 5681 5679 5679 5678 5675 5673 5667 5662 5658 5655 5654 5653 5651 5646 5643 5639 5633 5631 5626 5625 5629 5627 5620 5617 5615 5606
5672 5669 5669 5672 5670 5671 5671 5669 5667 5666 5665 5660 5655 5648 5645 5643 5642 5642 5639 5636 5631 5626 5623 5619 5615 5608 5606 5603 5602 5605 5602 5602
5663 5662 5660 5659 5660 5660 5660 5658 5654 5652 5649 5645 5640 5636 5632 5630 5626 5623 5619 5616 5612 5609 5605 5602 5598 5593 5589 5585 5582 5580 5583 5582
5653 5652 5651 5648 5646 5646 5645 5645 5640 5636 5632 5627 5623 5618 5614 5609 5606 5602 5600 5598 5596 5594 5590 5586 5583 5578 5573 5566 5561 5557 5556 5553
5643 5642 5640 5638 5637 5636 5635 5631 5626 5623 5618 5614 5610 5608 5603 5599 5594 5591 5588 5588 5584 5583 5577 5571 5565 5560 5553 5543 5536 5529 5525 5524
5634 5632 5630 5628 5625 5622 5620 5616 5610 5605 5603 5601 5595 5590 5585 5580 5576 5573 5572 5569 5568 5564 5557 5552 5545 5533 5520 5506 5495 5493 5495 5503
5622 5620 5618 5614 5610 5607 5602 5599 5595 5592 5586 5581 5576 5571 5568 5564 5560 5556 5554 5552 5549 5544 5537 5527 5516 5502 5490 5481 5473 5474 5476 5476
5610 5609 5604 5600 5597 5593 5590 5587 5581 5576 5571 5566 5564 5561 5553 5546 5541 5538 5535 5534 5527 5520 5509 5492 5480 5474 5470 5459 5453 5454 5453 5456
5599 5596 5592 5588 5584 5580 5576 5570 5564 5560 5557 5553 5546 5540 5535 5532 5529 5526 5518 5514 5503 5489 5475 5465 5460 5453 5449 5441 5439 5437 5436 5440
5586 5582 5579 5575 5571 5566 5559 5554 5549 5546 5541 5536 5531 5527 5523 5520 5516 5509 5499 5487 5475 5461 5454 5448 5443 5438 5432 5429 5428 5427 5426 5427
5573 5569 5565 5559 5553 5546 5543 5539 5535 5531 5528 5525 5522 5515 5511 5507 5500 5492 5481 5465 5456 5446 5437 5433 5430 5429 5427 5423 5423 5423 5424 5429
5562 5556 5550 5544 5541 5536 5527 5526 5524 5521 5519 5516 5513 5506 5499 5492 5482 5469 5456 5445 5437 5434 5428 5424 5427 5425 5422 5421 5420 5422 5430 5439
5552 5546 5543 5539 5533 5527 5523 5519 5514 5510 5509 5505 5499 5491 5480 5470 5459 5447 5435 5428 5425 5422 5422 5422 5420 5417 5413 5413 5414 5419 5429 5440
5544 5541 5535 5530 5525 5519 5511 5505 5500 5497 5494 5488 5480 5472 5458 5448 5436 5426 5422 5420 5418 5415 5416 5415 5414 5409 5406 5408 5415 5424 5434 5442
5534 5530 5524 5519 5509 5502 5496 5491 5487 5483 5479 5472 5460 5448 5437 5428 5421 5416 5415 5415 5413 5411 5410 5409 5406 5402 5404 5414 5421 5425 5432 5440
5520 5513 5508 5502 5494 5487 5479 5478 5474 5468 5461 5452 5439 5431 5422 5416 5412 5411 5413 5409 5409 5408 5405 5402 5398 5398 5401 5409 5417 5419 5423 5433